Meath Environmental Platform

Observations for Trim Market St

Time AQI Temp °C Hum % Pres Pa CO μg/m³ H₂S μg/m³ NO μg/m³ NO₂ μg/m³ O₃ μg/m³ SO₂ μg/m³ PM1 μg/m³ PM2.5 μg/m³ PM10 μg/m³
Tuesday 18 August 2026
13:01 2 22.9 58 57,415 0 1.85 1.48 12.95 83.68 0 0.71 2.11 2.64
13:00 2 23.1 58 57,439 0 2.64 1.38 13.5 83.3 0 0 1.63 1.92
12:53 2 24.1 54 57,127 0 1.21 3.12 19.6 70.69 0 0 1.75 1.78
12:51 2 24.4 54 56,876 0 0 2.42 14.51 84.02 0 0 1.78 1.96
12:45 2 24.7 52 57,787 0.15 0 2.19 12.42 55.02 0 0 1.84 2.02
12:44 2 24.8 52 57,843 0.57 0 2.1 13.3 53.8 0 0 1.84 2.02
12:43 2 24.8 52 57,997 0.28 0 2.14 13.23 49.77 0 0 1.84 2.02
12:42 2 24.8 53 58,041 0.18 0 2.11 12.33 55.5 0 0 1.83 2.01
12:41 2 24.8 53 57,883 0 0 2.04 12.33 50.33 0 0 1.83 2.01
12:40 2 24.8 53 57,649 0.07 0 2.12 12.26 56 0 0 1.82 2
12:39 2 24.8 53 57,344 0.44 0 2.3 12.59 53.44 0 0 1.82 2
12:38 2 24.8 53 57,116 0.02 0 2.36 12.45 50.25 0 0 1.82 2
12:37 2 24.8 53 56,870 0.06 0 2.64 16.47 53.54 0 0 1.81 2
12:36 2 24.8 53 56,593 0.07 0 2.73 16.86 52.52 0 0.71 3.34 3.89
12:35 2 24.7 53 56,469 0.09 0 2.82 13.76 52.6 0 0 1.8 1.98
12:34 2 24.7 54 56,152 0.04 0 2.84 14.82 47.71 0 0 1.79 2.45
12:33 2 24.6 54 55,786 0.1 0 2.93 31.79 49.26 0 0 1.79 1.97
12:32 2 24.6 54 55,624 0.02 0 2.84 20.44 61.21 0 0 2.8 3.19
12:30 2 24.4 54 55,670 0 0 2.39 14.17 75.88 0 0 1.79 1.97
12:26 2 24.2 53 55,980 0 0 2.5 14.82 64.22 0 0 1.81 1.99